Philadelphia, PA

1:52 AM EDT on April 21, 2018 (GMT -0400)
Philadelphia International

Weather History for KPHL - July, 2013

Change the Weather History Date:

Tuesday, July 30, 2013

  Actual Average Record
Temperature  
Mean Temperature 74 °F 78 °F  
Max Temperature 82 °F 87 °F 98 °F (1954)
Min Temperature 65 °F 69 °F 58 °F (1981)
Degree Days  
Heating Degree Days 0 0  
Month to date heating degree days 0 0  
Since 1 June heating degree days 0 11  
Since 1 July heating degree days 0 0  
Cooling Degree Days 9 13  
Month to date cooling degree days 482 387  
Year to date cooling degree days 900 736  
Since 1 June cooling degree days 776 645  
Growing Degree Days 23 (Base 50)    
Moisture  
Dew Point 54 °F    
Average Humidity 53    
Maximum Humidity 68    
Minimum Humidity 37    
Precipitation  
Precipitation 0.00 in 0.14 in 3.36 in (1971)
Month to date precipitation 13.24 4.21  
Year to date precipitation 36.33 24.38  
Snow  
Snow 0.00 in 0.00 in 0.00 in (1870)
Month to date snowfall 0.0 0.0  
Since 1 June snowfall 0.0 0.0  
Since 1 July snowfall 0.0 0.0  
Snow Depth 0.00 in    
Sea Level Pressure  
Sea Level Pressure 30.16 in    
Wind  
Wind Speed 7 mph (WNW)    
Max Wind Speed 16 mph    
Max Gust Speed 25 mph    
Visibility 10 miles    
Events      
T = Trace of Precipitation, MM = Missing Value Source: NWS Daily Summary

Daily Weather History Graph

Daily Weather History Graph

Search for Another Location

Airport or City:

Astronomy

Jul. 30, 2013 Rise Set
Actual Time 5:58 AM EDT 8:16 PM EDT
Civil Twilight 5:27 AM EDT 8:46 PM EDT
Nautical Twilight 4:50 AM EDT 9:23 PM EDT
Astronomical Twilight 4:08 AM EDT 10:04 PM EDT
Moon 12:14 AM EDT (7/30) 2:34 PM EDT (7/30)
Length of Visible Light 15h 18m
Length of Day
14h 18m
Last Quarter, 41% of the Moon is Illuminated
Jul 30
Last Quarter
Aug 6
New
Aug 14
First Quarter
Aug 20
Full
Aug 28
Last Quarter

Hourly Weather History & Observations

Time (EDT) Temp. Heat Index Dew Point Humidity Pressure Visibility Wind Dir Wind Speed Gust Speed Precip Events Conditions
12:54 AM 72.0 °F - 55.0 °F 55% 30.15 in 10.0 mi WNW 8.1 mph - N/A   Clear
1:54 AM 71.1 °F - 54.0 °F 55% 30.15 in 10.0 mi WNW 6.9 mph - N/A   Clear
2:54 AM 70.0 °F - 54.0 °F 57% 30.14 in 10.0 mi NW 5.8 mph - N/A   Clear
3:54 AM 68.0 °F - 54.0 °F 61% 30.14 in 10.0 mi NNW 6.9 mph - N/A   Clear
4:54 AM 68.0 °F - 54.0 °F 61% 30.16 in 10.0 mi WNW 5.8 mph - N/A   Clear
5:54 AM 66.9 °F - 54.0 °F 63% 30.17 in 10.0 mi NW 3.5 mph - N/A   Clear
6:54 AM 68.0 °F - 53.1 °F 59% 30.18 in 10.0 mi NW 4.6 mph - N/A   Clear
7:54 AM 69.1 °F - 55.0 °F 61% 30.19 in 10.0 mi NNW 6.9 mph - N/A   Clear
8:54 AM 72.0 °F - 55.0 °F 55% 30.20 in 10.0 mi Variable 4.6 mph - N/A   Clear
9:54 AM 75.9 °F - 54.0 °F 46% 30.20 in 10.0 mi NW 9.2 mph - N/A   Partly Cloudy
10:54 AM 77.0 °F - 53.1 °F 43% 30.20 in 10.0 mi NW 9.2 mph - N/A   Partly Cloudy
11:54 AM 78.1 °F - 53.1 °F 42% 30.18 in 10.0 mi Variable 6.9 mph - N/A   Scattered Clouds
12:54 PM 80.1 °F 79.9 °F 53.1 °F 39% 30.17 in 10.0 mi WNW 8.1 mph - N/A   Scattered Clouds
1:54 PM 79.0 °F - 51.1 °F 38% 30.16 in 10.0 mi Variable 4.6 mph - N/A   Scattered Clouds
2:54 PM 80.1 °F 79.9 °F 53.1 °F 39% 30.15 in 10.0 mi WSW 8.1 mph 16.1 mph N/A   Scattered Clouds
3:54 PM 80.1 °F 79.9 °F 53.1 °F 39% 30.14 in 10.0 mi West 11.5 mph 17.3 mph N/A   Scattered Clouds
4:54 PM 82.0 °F 81.2 °F 53.1 °F 37% 30.14 in 10.0 mi WNW 10.4 mph 16.1 mph N/A   Mostly Cloudy
5:54 PM 82.0 °F 81.3 °F 54.0 °F 38% 30.15 in 10.0 mi West 15.0 mph - N/A   Scattered Clouds
6:54 PM 81.0 °F 80.4 °F 53.1 °F 38% 30.15 in 10.0 mi WNW 12.7 mph - N/A   Scattered Clouds
7:54 PM 79.0 °F - 54.0 °F 42% 30.15 in 10.0 mi WNW 8.1 mph - N/A   Scattered Clouds
8:54 PM 78.1 °F - 55.0 °F 45% 30.15 in 10.0 mi WNW 6.9 mph - N/A   Scattered Clouds
9:54 PM 77.0 °F - 55.0 °F 47% 30.16 in 10.0 mi WNW 6.9 mph - N/A   Scattered Clouds
10:54 PM 75.9 °F - 55.9 °F 50% 30.16 in 10.0 mi WNW 3.5 mph - N/A   Partly Cloudy
11:54 PM 72.0 °F - 61.0 °F 68% 30.16 in 10.0 mi Calm Calm - N/A   Scattered Clouds